Location: Newark
(48.1500°N, 2.9667°W)
Time: 18:26:39
(UTC+00:00)

A-11 Canister half - Pass Details

Date: 24 January 2020
Orbit: 1517 x 1683 km, 47.2° (Epoch: 17 February)

Event Time Altitude Azimuth Distance (km) Brightness Sun altitude
Exits shadow 03:26:10 51° 99° (E) 1,849 9.4 -43.4°
Drops below altitude 10° 03:32:37 10° 96° (E) 3,695 11.5 -42.4°
Sets 03:35:40 0° 96° (E) 4,690 12.2 -41.9°
